Location: Wanzleben
(52.0609°N, 11.4408°E)
Time: 11:21:18
(UTC+00:00)

Cosmos 1340 Rocket - Pass Details

Date: 18 September 2020
Orbit: 529 x 558 km, 81.2° (Epoch: 25 October)

Event Time Altitude Azimuth Distance (km) Brightness Sun altitude
Exits shadow 19:55:13 23° 35° (NE) 1,176 4.5 -22.9°
Drops below altitude 10° 19:56:57 10° 24° (NNE) 1,819 5.6 -23.1°
Sets 19:59:12 0° 18° (NNE) 2,722 6.6 -23.4°
